| time (UTC) | temp F | wind direction | speed MPH | gust MPH | rain 1hr in | rain 24hr in | rain mn in | humidity % | barometer mb |
| 20260506183919 | 60 | 13 | 0.0 | 4.0 | 0.00 | 0.00 | 0.00 | 50 | 1014.1 |
| 20260506182940 | 60 | 0 | 1.0 | 1.0 | 0.00 | 0.00 | 0.00 | 52 | 1014.0 |
| 20260506181954 | 59 | 332 | 1.0 | 5.0 | 0.00 | 0.00 | 0.00 | 49 | 1013.9 |
| 20260506175809 | 60 | 243 | 0.0 | 4.0 | 0.00 | 0.00 | 0.00 | 54 | 1014.0 |
| 20260506174743 | 59 | 255 | 0.0 | 2.0 | 0.00 | 0.00 | 0.00 | 53 | 1014.2 |
| 20260506173735 | 60 | 293 | 0.0 | 3.0 | 0.00 | 0.00 | 0.00 | 53 | 1014.3 |
| 20260506172738 | 59 | 238 | 1.0 | 3.0 | 0.00 | 0.00 | 0.00 | 55 | 1014.3 |
| 20260506171714 | 59 | 224 | 1.0 | 3.0 | 0.00 | 0.00 | 0.00 | 56 | 1014.4 |
| 20260506170723 | 59 | 322 | 2.0 | 6.0 | 0.00 | 0.00 | 0.00 | 53 | 1014.5 |
| 20260506164544 | 59 | 344 | 1.0 | 5.0 | 0.00 | 0.00 | 0.00 | 54 | 1014.5 |
| 20260506163511 | 58 | 313 | 1.0 | 6.0 | 0.00 | 0.00 | 0.00 | 52 | 1014.4 |
| 20260506162515 | 60 | 346 | 1.0 | 1.0 | 0.00 | 0.00 | 0.00 | 57 | 1014.2 |
| 20260506160342 | 59 | 312 | 0.0 | 3.0 | 0.00 | 0.00 | 0.00 | 55 | 1014.4 |
| 20260506155342 | 58 | 1 | 1.0 | 6.0 | 0.00 | 0.00 | 0.00 | 59 | 1014.4 |
| 20260506154355 | 57 | 1 | 1.0 | 6.0 | 0.00 | 0.00 | 0.00 | 68 | 1014.2 |
| 20260506153403 | 55 | 246 | 1.0 | 5.0 | 0.00 | 0.00 | 0.00 | 68 | 1014.2 |
| 20260506152420 | 55 | 216 | 1.0 | 3.0 | 0.00 | 0.00 | 0.00 | 66 | 1014.3 |
| 20260506151407 | 55 | 238 | 0.0 | 3.0 | 0.00 | 0.00 | 0.00 | 68 | 1014.5 |
| 20260506150421 | 55 | 146 | 0.0 | 3.0 | 0.00 | 0.00 | 0.00 | 70 | 1014.5 |
| 20260506145430 | 56 | 266 | 0.0 | 3.0 | 0.00 | 0.00 | 0.00 | 70 | 1014.5 |
| 20260506144444 | 54 | 354 | 0.0 | 3.0 | 0.00 | 0.00 | 0.00 | 73 | 1014.3 |
| 20260506143419 | 53 | 329 | 0.0 | 1.0 | 0.00 | 0.00 | 0.00 | 73 | 1013.9 |
| 20260506142415 | 52 | 337 | 1.0 | 4.0 | 0.00 | 0.00 | 0.00 | 71 | 1013.8 |
| 20260506141420 | 52 | 353 | 1.0 | 7.0 | 0.00 | 0.00 | 0.00 | 73 | 1013.9 |
| 20260506140409 | 51 | 340 | 2.0 | 7.0 | 0.00 | 0.00 | 0.00 | 75 | 1013.5 |
| 20260506134209 | 51 | 336 | 2.0 | 4.0 | 0.00 | 0.00 | 0.00 | 75 | 1013.0 |
| 20260506133232 | 50 | 338 | 2.0 | 6.0 | 0.00 | 0.00 | 0.00 | 78 | 1013.1 |
| 20260506132226 | 50 | 347 | 0.0 | 6.0 | 0.00 | 0.00 | 0.00 | 77 | 1013.2 |
| 20260506130108 | 49 | 333 | 0.0 | 4.0 | 0.00 | 0.00 | 0.00 | 81 | 1013.2 |
| 20260506125037 | 49 | 348 | 0.0 | 1.0 | 0.00 | 0.00 | 0.00 | 87 | 1013.3 |
| 20260506121804 | 47 | 356 | 0.0 | 0.0 | 0.00 | 0.00 | 0.00 | 91 | 1013.4 |
| 20260506120818 | 46 | 356 | 0.0 | 0.0 | 0.00 | 0.00 | 0.00 | 91 | 1013.0 |
| 20260506114659 | 46 | 356 | 0.0 | 0.0 | 0.00 | 0.00 | 0.00 | 91 | 1012.5 |
| 20260506111522 | 45 | 340 | 0.0 | 0.0 | 0.00 | 0.00 | 0.00 | 89 | 1011.7 |
| 20260506110456 | 45 | 352 | 0.0 | 0.0 | 0.00 | 0.00 | 0.00 | 89 | 1011.4 |
| 20260506105510 | 45 | 336 | 0.0 | 3.0 | 0.00 | 0.00 | 0.00 | 89 | 1011.1 |
| 20260506104533 | 45 | 266 | 0.0 | 0.0 | 0.00 | 0.00 | 0.00 | 89 | 1011.1 |
| 20260506101222 | 45 | 20 | 0.0 | 3.0 | 0.00 | 0.00 | 0.00 | 88 | 1010.9 |
| 20260506100214 | 44 | 338 | 0.0 | 0.0 | 0.00 | 0.00 | 0.00 | 89 | 1011.1 |
| 20260506095224 | 44 | 352 | 1.0 | 1.0 | 0.00 | 0.00 | 0.00 | 89 | 1011.3 |
| 20260506094240 | 44 | 304 | 1.0 | 5.0 | 0.00 | 0.00 | 0.00 | 89 | 1011.0 |
| 20260506093220 | 44 | 299 | 1.0 | 5.0 | 0.00 | 0.00 | 0.00 | 89 | 1010.5 |
| 20260506092240 | 45 | 325 | 1.0 | 4.0 | 0.00 | 0.00 | 0.00 | 88 | 1010.2 |
| 20260506091243 | 45 | 340 | 2.0 | 5.0 | 0.00 | 0.00 | 0.00 | 88 | 1010.3 |
| 20260506090234 | 45 | 340 | 2.0 | 5.0 | 0.00 | 0.00 | 0.00 | 88 | 1010.6 |
| 20260506085249 | 45 | 2 | 1.0 | 6.0 | 0.00 | 0.00 | 0.00 | 89 | 1010.3 |
| 20260506084247 | 45 | 14 | 1.0 | 7.0 | 0.00 | 0.00 | 0.00 | 91 | 1010.8 |
| 20260506080940 | 45 | 357 | 1.0 | 5.0 | 0.00 | 0.00 | 0.00 | 91 | 1009.5 |
| 20260506072959 | 46 | 336 | 3.0 | 8.0 | 0.00 | 0.00 | 0.00 | 90 | 1010.0 |
| 20260506071940 | 46 | 349 | 3.0 | 7.0 | 0.00 | 0.00 | 0.00 | 90 | 1009.4 |
| 20260506070955 | 46 | 6 | 4.0 | 10.0 | 0.00 | 0.00 | 0.00 | 90 | 1009.7 |
| 20260506061927 | 48 | 13 | 6.0 | 14.0 | 0.00 | 0.00 | 0.00 | 93 | 1009.9 |
| 20260506060924 | 48 | 9 | 5.0 | 14.0 | 0.00 | 0.00 | 0.00 | 93 | 1009.8 |
| 20260506050735 | 49 | 3 | 3.0 | 9.0 | 0.00 | 0.00 | 0.00 | 94 | 1009.1 |
| 20260506044724 | 49 | 335 | 3.0 | 12.0 | 0.00 | 0.00 | 0.00 | 94 | 1008.8 |
| 20260506043742 | 49 | 42 | 4.0 | 12.0 | 0.00 | 0.00 | 0.00 | 94 | 1008.3 |
| 20260506042739 | 49 | 270 | 4.0 | 11.0 | 0.00 | 0.00 | 0.00 | 95 | 1008.3 |
| 20260506041715 | 49 | 359 | 4.0 | 10.0 | 0.00 | 0.00 | 0.00 | 94 | 1008.5 |
| 20260506040706 | 49 | 316 | 2.0 | 9.0 | 0.00 | 0.00 | 0.00 | 95 | 1008.7 |
| 20260506035647 | 49 | 11 | 3.0 | 9.0 | 0.00 | 0.00 | 0.00 | 95 | 1008.9 |
| 20260506034631 | 49 | 321 | 3.0 | 8.0 | 0.00 | 0.00 | 0.00 | 94 | 1008.6 |
| 20260506033636 | 49 | 323 | 1.0 | 8.0 | 0.00 | 0.00 | 0.00 | 95 | 1008.8 |
| 20260506032609 | 49 | 327 | 3.0 | 8.0 | 0.00 | 0.00 | 0.00 | 94 | 1008.2 |
| 20260506031616 | 49 | 347 | 3.0 | 11.0 | 0.00 | 0.00 | 0.00 | 94 | 1008.0 |
| 20260506030549 | 49 | 331 | 4.0 | 11.0 | 0.00 | 0.00 | 0.00 | 94 | 1008.3 |
| 20260506025523 | 49 | 323 | 3.0 | 8.0 | 0.00 | 0.00 | 0.00 | 94 | 1008.3 |
| 20260506023357 | 49 | 339 | 3.0 | 8.0 | 0.00 | 0.00 | 0.00 | 94 | 1008.2 |
| 20260506022406 | 49 | 331 | 2.0 | 7.0 | 0.00 | 0.00 | 0.00 | 94 | 1008.6 |
| 20260506021429 | 49 | 45 | 2.0 | 7.0 | 0.00 | 0.00 | 0.00 | 94 | 1007.7 |
| 20260506015252 | 49 | 359 | 3.0 | 8.0 | 0.00 | 0.00 | 0.00 | 93 | 1007.8 |
| 20260506014226 | 49 | 56 | 3.0 | 8.0 | 0.00 | 0.00 | 0.00 | 94 | 1007.9 |
| 20260506013228 | 49 | 336 | 2.0 | 8.0 | 0.00 | 0.00 | 0.00 | 93 | 1008.2 |
| 20260506011105 | 50 | 30 | 2.0 | 8.0 | 0.00 | 0.00 | 0.00 | 93 | 1007.6 |
| 20260506010114 | 50 | 22 | 2.0 | 8.0 | 0.00 | 0.00 | 0.00 | 93 | 1008.4 |
| 20260506004008 | 49 | 35 | 3.0 | 9.0 | 0.00 | 0.00 | 0.00 | 93 | 1008.3 |
| 20260506003006 | 49 | 337 | 6.0 | 12.0 | 0.00 | 0.00 | 0.00 | 93 | 1008.1 |
| 20260506002014 | 50 | 320 | 4.0 | 12.0 | 0.00 | 0.00 | 0.00 | 92 | 1008.3 |
| 20260506001002 | 50 | 331 | 6.0 | 12.0 | 0.00 | 0.00 | 0.00 | 93 | 1008.0 |
| 20260505235951 | 51 | 22 | 5.0 | 11.0 | 0.00 | 0.00 | 0.00 | 93 | 1007.7 |
| 20260505235012 | 51 | 14 | 4.0 | 11.0 | 0.00 | 0.00 | 0.00 | 93 | 1008.2 |
| 20260505233946 | 52 | 318 | 4.0 | 10.0 | 0.00 | 0.00 | 0.00 | 93 | 1007.9 |
| 20260505232941 | 52 | 354 | 3.0 | 13.0 | 0.00 | 0.00 | 0.00 | 93 | 1007.8 |
| 20260505231943 | 53 | 348 | 4.0 | 13.0 | 0.00 | 0.00 | 0.00 | 93 | 1008.3 |
| 20260505231000 | 54 | 266 | 4.0 | 9.0 | 0.00 | 0.00 | 0.00 | 93 | 1007.9 |
| 20260505230009 | 54 | 347 | 3.0 | 9.0 | 0.00 | 0.00 | 0.00 | 92 | 1007.5 |
| 20260505224955 | 55 | 359 | 4.0 | 14.0 | 0.00 | 0.00 | 0.00 | 91 | 1007.8 |
| 20260505224005 | 58 | 349 | 3.0 | 14.0 | 0.00 | 0.00 | 0.00 | 88 | 1007.6 |
| 20260505222948 | 61 | 255 | 2.0 | 5.0 | 0.00 | 0.00 | 0.00 | 93 | 1007.0 |
| 20260505222010 | 61 | 230 | 1.0 | 6.0 | 0.00 | 0.00 | 0.00 | 93 | 1006.9 |
| 20260505220953 | 61 | 169 | 2.0 | 6.0 | 0.00 | 0.00 | 0.00 | 93 | 1006.9 |
| 20260505215941 | 61 | 198 | 3.0 | 6.0 | 0.00 | 0.00 | 0.00 | 92 | 1007.1 |
| 20260505214910 | 62 | 154 | 2.0 | 4.0 | 0.00 | 0.00 | 0.00 | 92 | 1007.1 |
| 20260505213921 | 62 | 146 | 2.0 | 8.0 | 0.00 | 0.00 | 0.00 | 92 | 1007.1 |
| 20260505211752 | 62 | 225 | 3.0 | 9.0 | 0.00 | 0.00 | 0.00 | 91 | 1007.2 |
| 20260505210725 | 62 | 239 | 3.0 | 8.0 | 0.00 | 0.00 | 0.00 | 91 | 1007.3 |
| 20260505205736 | 62 | 221 | 3.0 | 8.0 | 0.00 | 0.00 | 0.00 | 90 | 1007.3 |
| 20260505204734 | 62 | 227 | 3.0 | 8.0 | 0.00 | 0.00 | 0.00 | 90 | 1007.4 |
| 20260505203737 | 62 | 200 | 3.0 | 9.0 | 0.00 | 0.00 | 0.00 | 90 | 1007.6 |
| 20260505202757 | 62 | 220 | 4.0 | 9.0 | 0.00 | 0.00 | 0.00 | 90 | 1007.5 |
| 20260505201750 | 62 | 250 | 4.0 | 13.0 | 0.00 | 0.00 | 0.00 | 89 | 1007.5 |
| 20260505200804 | 62 | 257 | 5.0 | 13.0 | 0.00 | 0.00 | 0.00 | 90 | 1007.5 |
| 20260505195730 | 62 | 238 | 4.0 | 11.0 | 0.00 | 0.00 | 0.00 | 90 | 1007.6 |
| 20260505194738 | 61 | 156 | 3.0 | 10.0 | 0.00 | 0.00 | 0.00 | 90 | 1007.7 |
| 20260505193746 | 61 | 188 | 3.0 | 9.0 | 0.00 | 0.00 | 0.00 | 91 | 1008.0 |
| 20260505192725 | 61 | 225 | 4.0 | 8.0 | 0.00 | 0.00 | 0.00 | 90 | 1008.0 |
| 20260505191708 | 60 | 197 | 3.0 | 8.0 | 0.00 | 0.00 | 0.00 | 91 | 1008.3 |
| 20260505190716 | 60 | 208 | 2.0 | 6.0 | 0.00 | 0.00 | 0.00 | 91 | 1008.2 |
| 20260505185646 | 60 | 170 | 3.0 | 6.0 | 0.00 | 0.00 | 0.00 | 90 | 1008.0 |
| 20260505184710 | 60 | 134 | 2.0 | 6.0 | 0.00 | 0.00 | 0.00 | 91 | 1008.3 |